[[{"header":{"parameterUnit":"m.s-1","parameterCategory":1,"la1":30.2991,"la2":30.254,"lo1":-89.0895,"lo2":-89.0444,"dy":0.0017,"dx":0.0017,"nx":28,"ny":28,"refTime":"2024-12-14T09:00:00:Z","depth":0,"parameterNumber":2,"parameterNumberName":"U-component_of_WINDS"},"data":[0,0,0,0,0,0,0,0,0,0,0,0,0,0,0,0,0,0,0,0,0,0,0,0,0,0,0,0,0,0,0,0,0,0,0,0,0,0,0,0,0,0,0,0,0,0,0,0,0,0,0,0,0,0,0,0,0,0,-5.6435,-5.6435,0,-5.6389,-5.6389,-5.6388,-5.6237,-5.6234,-5.6231,-5.6227,-5.6183,-5.6185,-5.6187,0,0,0,0,0,0,0,0,0,0,0,0,0,-5.6398,-5.6399,-5.6435,-5.6435,-5.6434,-5.6389,-5.6389,-5.6388,-5.6238,-5.6234,-5.623,-5.6226,-5.6182,-5.6185,-5.6187,0,0,0,0,0,0,0,0,0,0,0,0,0,-5.6389,-5.64,-5.6436,-5.6354,-5.6346,-5.6389,-5.6389,-5.6388,-5.6239,-5.6234,-5.6229,-5.6224,-5.6181,-5.6184,-5.6187,-5.6307,0,0,-5.6196,-5.6197,0,0,0,0,0,0,0,0,-5.639,-5.6391,-5.6366,-5.636,-5.6351,-5.6314,-5.6359,-5.6361,-5.624,-5.628,-5.6227,-5.6221,-5.6231,-5.6229,-5.6232,-5.6305,-5.6303,-5.6196,-5.6198,-5.62,-5.62,0,0,0,0,0,0,0,-5.6391,-5.6392,-5.6417,-5.6366,-5.6357,-5.6321,-5.6314,-5.6359,-5.6284,-5.6276,-5.6265,-5.6261,-5.6226,-5.6229,-5.623,-5.6302,-5.6196,-5.6199,-5.6201,-5.6202,-5.6472,-5.6477,0,0,0,0,0,0,-5.6403,-5.6393,-5.6419,-5.6416,-5.6358,-5.6326,-5.6318,-5.6331,-5.6283,-5.6271,-5.6266,-5.6254,-5.6227,-5.6226,-5.6228,-5.6363,-5.6199,-5.6202,-5.6204,-5.6466,-5.6473,-5.6479,0,0,0,0,0,0,-5.6402,-5.6406,-5.642,-5.6402,-5.6401,-5.6332,-5.6347,-5.6333,-5.6336,-5.6275,-5.6262,-5.6283,-5.6223,-5.6223,-5.6288,-5.636,-5.6204,-5.6206,-5.646,-5.6468,-5.6476,-5.6638,0,0,0,0,0,0,-5.6402,-5.6407,-5.645,-5.6404,-5.6402,-5.6481,-5.6352,-5.6335,-5.6341,-5.6326,-5.6288,-5.6277,-5.6219,-5.6285,-5.6291,-5.6361,-5.6209,-5.6453,-5.6464,-5.6473,-5.6625,-5.665,-5.6671,0,0,0,0,0,-5.6401,-5.6498,-5.6453,-5.6457,-5.6455,-5.6485,-5.6484,-5.6415,-5.6348,-5.6391,-5.6353,-5.6278,-5.6352,-5.6292,-5.6298,-5.6371,-5.6448,-5.6461,-5.6472,-5.6615,-5.6645,-5.6671,0,0,0,0,0,0,-5.6555,-5.649,-5.644,-5.6525,-5.6512,-5.646,-5.6512,-5.6449,-5.6455,-5.6441,-5.6356,-5.6348,-5.6425,-5.6405,-5.634,-5.6484,-5.6388,-5.6402,-5.6494,-5.6522,-5.6545,-5.6547,-5.6211,0,0,0,0,0,-5.6599,-5.6628,-5.657,-5.6651,-5.6647,-5.6582,-5.6592,-5.654,-5.6523,-5.6517,-5.6483,-5.6471,-5.6491,-5.6506,-5.6521,-5.6623,-5.6613,-5.6676,-5.6699,-5.6718,-5.673,-5.6783,-5.681,-5.6518,-5.6518,-5.6518,0,0,-5.669,-5.6658,-5.6682,-5.6681,-5.6665,-5.6698,-5.6578,-5.6617,-5.6641,-5.6523,-5.6581,-5.6557,-5.6538,-5.6622,-5.6657,-5.6607,-5.6809,-5.6734,-5.675,-5.6751,-5.6798,-5.6826,-5.6851,-5.6527,-5.6525,-5.6524,0,0,-5.6871,-5.6851,-5.6915,-5.6902,-5.6879,-5.6835,-5.6851,-5.681,-5.6788,-5.6846,-5.6758,-5.6787,-5.6824,-5.6813,-5.6813,-5.6995,-5.6927,-5.7003,-5.7122,-5.7174,-5.7197,-5.7217,-5.7281,-5.7305,-5.7016,-5.7017,-5.7017,0,-5.6987,-5.7031,-5.6957,-5.7002,-5.7005,-5.6901,-5.6966,-5.6957,-5.6941,-5.6946,-5.6891,-5.6935,-5.6915,-5.6995,-5.704,-5.7044,-5.706,-5.7005,-5.72,-5.7219,-5.7237,-5.7297,-5.7321,-5.7026,-5.7025,-5.7024,-5.7023,0,-5.7174,-5.7208,-5.7263,-5.7249,-5.7259,-5.7315,-5.725,-5.7269,-5.7218,-5.718,-5.7241,-5.7214,-5.7222,-5.7238,-5.7188,-5.7312,-5.7281,-5.7215,-5.7115,-5.7275,-5.733,-5.7352,-5.7039,-5.7036,-5.7033,-5.7031,0,0,-5.7447,-5.7394,-5.7415,-5.7408,-5.7377,-5.7402,-5.7455,-5.7462,-5.748,-5.7474,-5.7515,-5.7551,-5.7489,-5.7489,-5.7438,-5.7484,-5.763,-5.7411,-5.741,-5.7452,-5.7764,-5.7812,-5.784,-5.7586,-5.759,-5.7593,-5.7765,0,-5.7618,-5.7702,-5.7638,-5.7734,-5.7763,-5.7667,-5.7713,-5.77,-5.7668,-5.769,-5.7655,-5.768,-5.7598,-5.7597,-5.7639,-5.7603,-5.7691,-5.759,-5.7623,-5.7625,-5.7628,-5.7869,-5.792,-5.8083,-5.7786,-5.779,-5.7792,0,-5.7827,-5.783,-5.7929,-5.7892,-5.7903,-5.7945,-5.7947,-5.7969,-5.7954,-5.7927,-5.793,-5.7867,-5.7917,-5.7822,-5.789,-5.7824,-5.7834,-5.7819,-5.7824,-5.7822,-5.7716,-5.7871,-5.8133,-5.8157,-5.7826,-5.7823,-5.782,0,-5.8014,-5.8043,-5.8106,-5.8103,-5.8063,-5.8095,-5.808,-5.8059,-5.8069,-5.8072,-5.8078,-5.8088,-5.8093,-5.8103,-5.8045,-5.7982,-5.8121,-5.8022,-5.81,-5.8102,-5.8131,-5.8129,-5.8396,-5.8143,-5.8143,-5.8142,-5.8142,0,-5.8209,-5.8273,-5.8189,-5.8228,-5.8297,-5.8225,-5.8296,-5.8272,-5.8255,-5.8287,-5.8207,-5.8239,-5.8162,-5.8188,-5.8144,-5.8207,-5.8211,-5.8191,-5.8178,-5.8196,-5.8199,-5.8199,-5.8186,-5.8149,-5.8147,-5.8146,-5.8145,0,-5.8428,-5.8375,-5.8436,-5.8394,-5.8386,-5.8439,-5.8403,-5.8438,-5.8402,-5.8445,-5.8451,-5.8395,-5.8421,-5.8365,-5.8384,-5.8355,-5.8443,-5.8414,-5.8448,-5.8438,-5.8519,-5.8512,-5.8793,-5.8826,-5.8556,-5.8558,-5.8561,0,-5.8554,-5.8601,-5.8565,-5.8581,-5.857,-5.8597,-5.8606,-5.8539,-5.8552,-5.8539,-5.8576,-5.8596,-5.8607,-5.8654,-5.8615,-5.863,-5.8598,-5.8696,-5.8599,-5.8617,-5.8597,-5.8594,-5.8598,-5.8715,-5.8718,-5.8721,-5.8723,0,-5.8784,-5.8756,-5.8771,-5.878,-5.8793,-5.8797,-5.8794,-5.8813,-5.8741,-5.876,-5.8786,-5.8795,-5.8815,-5.8835,-5.8841,-5.8827,-5.8764,-5.8755,-5.8773,-5.8791,-5.8808,-5.8798,-5.85,-5.8747,-5.8745,-5.8743,-5.8742,-5.8741,-5.8958,-5.8995,-5.8976,-5.8997,-5.8989,-5.8989,-5.9019,-5.8988,-5.9008,-5.9018,-5.8978,-5.9013,-5.8999,-5.9,-5.8993,-5.902,-5.8976,-5.9003,-5.901,-5.9017,-5.9029,-5.8807,-5.9021,-5.9021,-5.902,-5.9019,-5.9019,0,-5.9181,-5.9165,-5.9185,-5.9185,-5.9202,-5.9143,-5.9138,-5.9156,-5.9188,-5.9179,-5.9193,-5.9223,-5.9244,-5.9209,-5.9223,-5.9252,-5.9223,-5.9258,-5.9253,-5.9251,-5.9068,-5.905,-5.9281,-5.9281,-5.9281,-5.9281,-5.928,-5.928,-5.9299,-5.9359,-5.933,-5.9386,-5.9369,-5.9402,-5.9404,-5.9405,-5.9397,-5.9435,-5.9451,-5.9428,-5.941,-5.9423,-5.9439,-5.9429,-5.9437,-5.9481,-5.946,-5.929,-5.9264,-5.9239,-5.9221,-5.9484,-5.9485,-5.964,-5.9641,-5.9643]},{"header":{"parameterUnit":"m.s-1","parameterCategory":1,"la1":30.2991,"la2":30.254,"lo1":-89.0895,"lo2":-89.0444,"dy":0.0017,"dx":0.0017,"nx":28,"ny":28,"refTime":"2024-12-14T09:00:00:Z","depth":0,"parameterNumber":3,"parameterNumberName":"V-component_of_WINDS"},"data":[0,0,0,0,0,0,0,0,0,0,0,0,0,0,0,0,0,0,0,0,0,0,0,0,0,0,0,0,0,0,0,0,0,0,0,0,0,0,0,0,0,0,0,0,0,0,0,0,0,0,0,0,0,0,0,0,0,0,0.2629,0.2629,0,0.2627,0.2627,0.2627,0.2682,0.2684,0.2685,0.2687,0.2681,0.2679,0.2678,0,0,0,0,0,0,0,0,0,0,0,0,0,0.2682,0.268,0.2629,0.2629,0.2629,0.2627,0.2627,0.2627,0.2682,0.2684,0.2686,0.2687,0.2681,0.2679,0.2677,0,0,0,0,0,0,0,0,0,0,0,0,0,0.2667,0.268,0.2629,0.2657,0.2659,0.2627,0.2627,0.2627,0.2682,0.2684,0.2686,0.2688,0.2682,0.268,0.2677,0.2618,0,0,0.267,0.2669,0,0,0,0,0,0,0,0,0.2668,0.2665,0.2653,0.2655,0.2657,0.2657,0.2643,0.2623,0.2681,0.2673,0.2687,0.2689,0.2671,0.267,0.2664,0.2617,0.2617,0.267,0.2668,0.2667,0.2667,0,0,0,0,0,0,0,0.2669,0.2665,0.2628,0.2652,0.2655,0.2669,0.2669,0.264,0.2659,0.2674,0.2678,0.2677,0.2673,0.2666,0.2664,0.2617,0.267,0.2668,0.2666,0.2665,0.2524,0.2522,0,0,0,0,0,0,0.2666,0.2666,0.2628,0.2628,0.2668,0.2666,0.2667,0.2655,0.266,0.2663,0.2675,0.268,0.2669,0.2667,0.2664,0.2596,0.2667,0.2665,0.2664,0.2526,0.2523,0.2521,0,0,0,0,0,0,0.2667,0.2662,0.2628,0.2648,0.2645,0.2663,0.2649,0.2654,0.2647,0.2661,0.2664,0.2665,0.2671,0.2668,0.263,0.2596,0.2664,0.2662,0.2529,0.2525,0.2522,0.2458,0,0,0,0,0,0,0.2668,0.2662,0.264,0.2647,0.2644,0.2594,0.2647,0.2652,0.2643,0.2649,0.2652,0.2655,0.2672,0.2633,0.2627,0.2594,0.266,0.2532,0.2527,0.2523,0.2463,0.2452,0.2444,0,0,0,0,0,0.267,0.262,0.2638,0.2633,0.2616,0.2592,0.2589,0.2612,0.2641,0.2618,0.2627,0.2654,0.2601,0.2628,0.2623,0.2589,0.2534,0.2529,0.2523,0.2467,0.2454,0.2444,0,0,0,0,0,0,0.2606,0.2622,0.2642,0.2593,0.2591,0.2601,0.2573,0.2597,0.2586,0.2591,0.2619,0.2619,0.2577,0.2579,0.2609,0.2532,0.2573,0.2566,0.2532,0.252,0.2511,0.251,0.2658,0,0,0,0,0,0.2587,0.2566,0.2581,0.2537,0.2535,0.2554,0.2544,0.2562,0.256,0.2559,0.2566,0.2562,0.2545,0.2533,0.2518,0.2464,0.2466,0.2438,0.2429,0.2421,0.2414,0.2388,0.2376,0.2503,0.2503,0.2503,0,0,0.2545,0.2552,0.2537,0.2524,0.2524,0.2503,0.2553,0.2527,0.2511,0.2555,0.252,0.2525,0.2523,0.2478,0.2458,0.2478,0.238,0.2414,0.2407,0.2405,0.2381,0.2369,0.2358,0.25,0.25,0.2501,0,0,0.246,0.2462,0.2426,0.2427,0.2428,0.2442,0.2433,0.2441,0.2446,0.2412,0.2445,0.2427,0.2396,0.2394,0.2389,0.2307,0.2332,0.2301,0.225,0.2224,0.2214,0.2205,0.2176,0.2165,0.2295,0.2295,0.2295,0,0.2408,0.2377,0.2405,0.2378,0.2372,0.2413,0.2378,0.2376,0.2371,0.2366,0.239,0.2354,0.2356,0.2311,0.2292,0.2286,0.2278,0.23,0.2213,0.2205,0.2197,0.2169,0.2158,0.2291,0.2291,0.2292,0.2292,0,0.2314,0.2292,0.2263,0.226,0.2251,0.222,0.2243,0.223,0.225,0.2261,0.2227,0.2231,0.2219,0.221,0.2227,0.2168,0.2181,0.2208,0.2249,0.218,0.2155,0.2145,0.2286,0.2287,0.2288,0.2289,0,0,0.2184,0.22,0.2188,0.2188,0.2194,0.2178,0.215,0.2139,0.2128,0.2124,0.2101,0.2076,0.2103,0.2097,0.2116,0.2093,0.2029,0.2123,0.2124,0.2105,0.1964,0.1943,0.193,0.2046,0.2044,0.2043,0.1965,0,0.2101,0.2053,0.2079,0.2028,0.2009,0.205,0.2026,0.2027,0.2038,0.2023,0.2035,0.2017,0.2053,0.205,0.203,0.2041,0.2,0.2047,0.2024,0.2023,0.2022,0.1917,0.1894,0.182,0.1955,0.1953,0.1952,0,0.1996,0.1991,0.1938,0.1951,0.1944,0.1921,0.1915,0.1901,0.1903,0.1913,0.1908,0.1933,0.1907,0.1949,0.1913,0.1944,0.1937,0.1941,0.1939,0.1936,0.1982,0.1911,0.1796,0.1785,0.1937,0.1938,0.1939,0,0.1907,0.1887,0.1853,0.1852,0.1865,0.1849,0.1853,0.1859,0.1851,0.1846,0.1842,0.1833,0.1827,0.182,0.1842,0.1871,0.1803,0.1847,0.181,0.181,0.1792,0.1793,0.1674,0.1789,0.1789,0.179,0.179,0,0.1811,0.1777,0.1814,0.1793,0.1757,0.1788,0.1751,0.176,0.1765,0.1747,0.1782,0.1764,0.1795,0.1781,0.1798,0.1766,0.1763,0.177,0.1775,0.1766,0.1765,0.1761,0.1766,0.1787,0.1787,0.1788,0.1789,0,0.1704,0.1727,0.1694,0.1711,0.1714,0.1687,0.1701,0.1683,0.1698,0.1674,0.1671,0.1693,0.1678,0.17,0.1687,0.1699,0.1655,0.1668,0.1654,0.1657,0.1619,0.1622,0.1492,0.1477,0.1603,0.1601,0.16,0,0.164,0.1616,0.1631,0.1622,0.1626,0.1611,0.1605,0.1635,0.1627,0.163,0.1611,0.16,0.1592,0.1566,0.1581,0.1572,0.1584,0.154,0.1583,0.1576,0.1583,0.1584,0.1582,0.153,0.1528,0.1527,0.1526,0,0.1525,0.1539,0.1529,0.1524,0.1517,0.1514,0.1513,0.1504,0.1536,0.1525,0.1512,0.1506,0.1494,0.1482,0.1477,0.1482,0.1509,0.1513,0.1504,0.1494,0.1487,0.149,0.1629,0.1515,0.1516,0.1517,0.1518,0.1518,0.1438,0.1419,0.1427,0.1416,0.142,0.1419,0.1404,0.1418,0.1407,0.1401,0.142,0.1402,0.1408,0.1404,0.1406,0.1392,0.1412,0.1399,0.1395,0.1391,0.1385,0.1491,0.1392,0.1392,0.1392,0.1393,0.1393,0,0.1324,0.1333,0.1322,0.1322,0.1314,0.1343,0.1345,0.1336,0.132,0.1324,0.1316,0.1301,0.1291,0.1306,0.1299,0.1285,0.1297,0.1281,0.1282,0.1283,0.1368,0.1377,0.1272,0.1272,0.1272,0.1272,0.1272,0.1272,0.1264,0.1234,0.1249,0.1222,0.1231,0.1214,0.1213,0.1213,0.1217,0.1199,0.1191,0.1202,0.1211,0.1205,0.1197,0.1202,0.1197,0.1177,0.1186,0.1265,0.1277,0.1288,0.1296,0.1176,0.1175,0.1102,0.1101,0.11]}]]